Weather History for New Castle, PA

Change the Weather History Date:

Sunday, June 23, 2013

  Actual Average Record
Temperature  
Mean Temperature 77 °F -  
Max Temperature 90 °F 81 °F 98 °F (1933)
Min Temperature 64 °F 55 °F 37 °F (1963)
Cooling Degree Days 12    
Growing Degree Days 27 (Base 50)    
Moisture  
Dew Point 66 °F    
Average Humidity 71    
Maximum Humidity 100    
Minimum Humidity 40    
Precipitation  
Precipitation 0.00 in - - ()
Sea Level Pressure  
Sea Level Pressure 30.15 in    
Wind  
Wind Speed 3 mph (SW)    
Max Wind Speed 10 mph    
Max Gust Speed 16 mph    
Visibility 9 miles    
Events      
Averages and records for this station are not official NWS values.
T = Trace of Precipitation, MM = Missing Value Source: NWS Daily Summary

Daily Weather History Graph

Daily Weather History Graph

Search for Another Location

Airport:

Trip Planner

Search our weather history database for the weather conditions in past years. The results will help you decide how hot, cold, wet, or windy it might be!

Date:

Astronomy

Jun. 23, 2013 Rise Set
Actual Time 5:50 AM EDT 8:57 PM EDT
Civil Twilight 5:16 AM EDT 9:31 PM EDT
Nautical Twilight 4:33 AM EDT 10:14 PM EDT
Astronomical Twilight 3:42 AM EDT 11:05 PM EDT
Moon 9:07 PM EDT (6/23) 6:06 AM EDT (6/23)
Length of Visible Light 16h 14m
Length of Day
15h 07m
Full, 100% of the Moon is Illuminated
Jun 23
Full
Jun 30
Last Quarter
Jul 8
New
Jul 15
First Quarter
Jul 22
Full

Hourly Weather History & Observations

Time (EDT) Temp. Heat Index Dew Point Humidity Pressure Visibility Wind Dir Wind Speed Gust Speed Precip Events Conditions
12:56 AM 72.9 °F - 66.9 °F 82% 30.16 in 10.0 mi Variable 3.5 mph - N/A   Clear
1:56 AM 72.0 °F - 66.9 °F 84% 30.15 in 10.0 mi Calm Calm - N/A   Clear
2:56 AM 72.0 °F - 66.9 °F 84% 30.14 in 10.0 mi Calm Calm - N/A   Clear
3:56 AM 68.0 °F - 65.8 °F 93% 30.14 in 9.0 mi Calm Calm - N/A   Clear
4:56 AM 66.9 °F - 65.8 °F 96% 30.15 in 7.0 mi Variable 3.5 mph - N/A   Clear
5:56 AM 66.9 °F - 64.9 °F 93% 30.17 in 6.0 mi Calm Calm - N/A   Clear
6:03 AM 66.2 °F - 64.4 °F 94% 30.15 in 1.8 mi NNE 3.5 mph - N/A   Clear
6:29 AM 64.4 °F - 64.4 °F 100% 30.16 in 2.0 mi Calm Calm - N/A   Partly Cloudy
6:45 AM 66.2 °F - 66.2 °F 100% 30.16 in 4.0 mi Calm Calm - N/A   Mostly Cloudy
6:56 AM 68.0 °F - 66.9 °F 96% 30.19 in 6.0 mi Calm Calm - N/A   Mostly Cloudy
7:56 AM 72.9 °F - 68.0 °F 85% 30.19 in 9.0 mi Variable 5.8 mph - N/A   Clear
8:56 AM 77.0 °F - 68.9 °F 76% 30.19 in 10.0 mi Variable 4.6 mph - N/A   Clear
9:56 AM 81.9 °F 85.6 °F 70.0 °F 67% 30.19 in 10.0 mi South 4.6 mph - N/A   Clear
10:56 AM 86.0 °F 90.7 °F 70.0 °F 59% 30.18 in 10.0 mi Variable 4.6 mph - N/A   Clear
11:56 AM 88.0 °F 90.7 °F 66.9 °F 49% 30.17 in 10.0 mi SW 6.9 mph - N/A   Scattered Clouds
12:56 PM 88.0 °F 90.3 °F 65.8 °F 48% 30.15 in 10.0 mi WSW 10.4 mph - N/A   Partly Cloudy
1:56 PM 89.6 °F 92.2 °F 66.2 °F 46% 30.13 in 10.0 mi WSW 10.4 mph - N/A   Scattered Clouds
2:56 PM 90.0 °F 90.6 °F 63.0 °F 40% 30.13 in 10.0 mi SW 8.1 mph 16.1 mph N/A   Partly Cloudy
3:56 PM 88.9 °F 89.1 °F 61.9 °F 40% 30.12 in 10.0 mi SW 8.1 mph - N/A   Partly Cloudy
4:56 PM 87.8 °F 89.4 °F 64.4 °F 46% 30.09 in 10.0 mi SW 8.1 mph - N/A   Scattered Clouds
5:56 PM 86.9 °F 88.1 °F 63.9 °F 46% 30.10 in 10.0 mi SSW 10.4 mph - N/A   Clear
6:56 PM 86.0 °F 88.2 °F 65.8 °F 51% 30.09 in 10.0 mi SSW 4.6 mph - N/A   Clear
7:56 PM 82.9 °F 84.6 °F 64.9 °F 54% 30.10 in 10.0 mi Variable 3.5 mph - N/A   Clear
8:56 PM 77.9 °F - 64.9 °F 64% 30.11 in 10.0 mi Calm Calm - N/A   Clear
9:56 PM 74.8 °F - 64.9 °F 71% 30.12 in 10.0 mi Calm Calm - N/A   Clear
10:56 PM 73.9 °F - 64.9 °F 73% 30.14 in 10.0 mi Variable 3.5 mph - N/A   Clear
11:56 PM 74.8 °F - 64.9 °F 71% 30.15 in 10.0 mi Variable 3.5 mph - N/A   Clear